www.pogodaiklimat.ru

Погода и климат >> Архив погоды >> Россия >> Нижегородская область >> Ветлуга


АРХИВ ПОГОДЫ в Ветлуге

Время (UTC), дата Ветер
(напр.,м/с)
 
Видим.   Явления Облачность Т
(С)
Тd
(С)
f
(%)
Тe
(С)
Тes
(С)
Комфортность P
(гПа)
Po
(гПа)
Тmin
(С)
Tmax
(С)
R
(мм)
R24
(мм)
S
(см)
09 17.06 З 4-9
{11}
20 км 8/8 600 м
[Cb calv Ac trans]
+23.3 +9.0 40 +25 +27 комфорт 1009.1 993.5
12 17.06 З 1-4
{10}
20 км 8/6 600 м
[Cb calv Ac trans]
+21.9 +10.4 48 +24 +27 комфорт 1008.9 993.3
15 17.06 СЗ 2-5
{6}
20 км 8/8 600 м
[Cu hum Ac trans]
+24.3 +8.2 36 +25 +25 комфорт 1008.7 993.2 +25.0
18 17.06 штиль 0
{6}
20 км 8/4 600 м
[Cb calv Ac trans Ci fib]
+17.6 +10.5 63 +18 +18 1009.3 993.5
21 17.06 штиль 0
{2}
20 км 8/3 600 м
[Sc Ac trans Ci fib]
+15.1 +11.0 76 +15 +15 1009.8 993.8
00 18.06 В 2-4
{4}
20 км 10/8 600 м
[Sc Ci fib]
+13.5 +8.2 70 +13 +13 1010.6 994.4
03 18.06 В 1-2
{4}
20 км 10/8 600 м
[Cb calv Ac As]
+13.9 +7.1 64 +14 +15 1010.6 994.4 +12.6
06 18.06 Ю 1-3
{3}
20 км 9/3 600 м
[Cb calv Ac trans Cc]
+18.2 +11.4 64 +20 +24 1009.9 994.1
09 18.06 ЮЗ 2-4
{4}
20 км 10/8 600 м
[Cb calv Ci fib]
+24.2 +9.3 39 +25 +27 комфорт 1008.8 993.3
12 18.06 З 4-9
{9}
20 км 8/6 600 м
[Cb calv Ci fib]
+24.8 +8.9 36 +25 +28 комфорт 1007.8 992.4
15 18.06 С 4-8
{9}
20 км {ливн. осадки} 8/8 300 м
[Cb calv Cc]
+22.5 +11.2 49 +25 +25 комфорт 1008.2 992.6 +26.1 0.4
18 18.06 З 1-2
{8}
20 км {ливн. осадки} 8/5 600 м
[Cb calv Ac As Ci fib]
+16.6 +13.2 80 +17 +17 1008.6 992.7
21 18.06 З 1-2
{2}
20 км 8/3 600 м
[Cb calv Ci fib]
+13.8 +12.3 91 +14 +14 1009.0 992.9
00 19.06 СЗ 1-2
{2}
20 км 3/0
[Cs]
+12.7 +11.5 92 +13 +13 1009.6 993.4
03 19.06 СЗ 2-3
{5}
20 км 1/0
[Ci fib]
+16.0 +12.2 78 +16 +19 1010.2 994.3 +12.6 0.0
06 19.06 СЗ 3-4
{6}
20 км 6/0
[Ac As Cs]
+21.4 +12.0 55 +24 +30 комфорт 1010.5 994.8
09 19.06 З 3-3
{10}
20 км 10/9 600 м
[Cb calv Ac As]
+25.9 +11.1 40 +27 +27 жарко 1010.1 994.7
12 19.06 СЗ 3-7
{8}
20 км 10/8 600 м
[Sc diur, vesp Ac As Ci fib]
+26.7 +9.5 34 +27 +28 жарко 1010.3 994.9
15 19.06 СЗ 3-6
{8}
20 км 9/3 600 м
[Sc diur, vesp Ac As Ci fib]
+25.9 +9.7 36 +27 +27 жарко 1010.6 995.2 +26.7
18 19.06 З 1-1
{6}
20 км 8/3 600 м
[Sc Cs]
+20.6 +10.7 53 +23 +23 комфорт 1011.8 996.1
21 19.06 СЗ 1-2
{4}
20 км 8/3 600 м
[Sc Ac trans Ci fib]
+17.8 +10.7 63 +19 +19 1012.9 997.0
00 20.06 штиль 0
{2}
20 км 6/0
[As trans Cs]
+13.6 +10.5 82 +13 +13 1012.9 996.8
03 20.06 З 2-3
{3}
20 км 4/0
[Cs]
+17.8 +11.9 68 +18 +21 1013.3 997.4 +13.5
06 20.06 З 2-4
{4}
20 км 1/0
[Ci fib]
+23.9 +12.0 47 +26 +36 жарко 1013.7 998.1
09 20.06 З 4-8
{9}
20 км 3/3 1000 м
[Sc diur, vesp]
+27.0 +7.1 28 +27 +34 жарко 1013.2 997.7
12 20.06 СЗ 3-7
{10}
20 км 5/5 1000 м
[Sc diur, vesp]
+27.7 +6.8 27 +27 +31 жарко 1013.2 997.7
15 20.06 СЗ 3-5
{11}
20 км 4/4 1000 м
[Sc diur, vesp]
+27.3 +7.3 28 +27 +28 жарко 1013.4 997.9 +28.9
18 20.06 С 1-2
{9}
20 км 9/5 600 м
[Cb calv Ac As Ci fib]
+19.5 +11.8 61 +22 +22 комфорт 1015.6 999.7
21 20.06 З 1-1
{2}
20 км 8/0
[Ac As Cs]
+15.7 +12.1 79 +16 +16 1016.2 1000.2
00 21.06 штиль 0
{3}
20 км 6/0
[Ac As Cs]
+12.4 +10.9 91 +12 +12 1017.6 1001.2
03 21.06 штиль 0
{2}
20 км 8/4 600 м
[Sc Ac As Cs]
+15.9 +12.3 79 +16 +17 1018.4 1002.4 +12.2
06 21.06 В 1-4
{4}
20 км 8/5 600 м
[Cb calv Ac trans Ci fib]
+23.3 +14.3 57 +27 +31 душно 1017.9 1002.3
09 21.06 З 2-6
{6}
20 км 8/4 600 м
[Cb calv Ci fib]
+26.9 +10.9 37 +28 +36 жарко 1017.1 1001.6
12 21.06 СВ 4-10
{10}
20 км гроза, ливневой дождь 10/4 600 м
[Cb calv Ac As Ci fib]
+24.2 +11.4 45 +26 +28 жарко 1017.5 1001.9
15 21.06 Ю 1-3
{11}
20 км {гроза} 9/5 600 м
[Cb calv As trans Ci fib]
+20.0 +13.7 67 +23 +24 комфорт 1017.5 1001.7 +27.8 0.0
18 21.06 ЮЗ 1-2
{8}
20 км {гроза} 8/4 600 м
[Cb calv Ac As Ci fib]
+19.7 +12.6 64 +22 +22 комфорт 1016.4 1000.6
21 21.06 штиль 0
{3}
20 км 8/3 600 м
[Sc Ac As]
+13.9 +12.8 93 +13 +13 1017.1 1001.0
00 22.06 штиль 0
{1}
20 км 8/3 600 м
[Sc Ac As Ci fib]
+12.3 +11.5 95 +12 +12 1016.9 1000.6
03 22.06 Ю 1-2
{2}
20 км 8/0
[Cs]
+16.2 +13.7 85 +17 +20 1015.7 999.7 +12.1
06 22.06 ЮВ 1-2
{2}
20 км 10/0
[Ac cast]
+19.4 +14.8 75 +22 +26 комфорт 1015.2 999.4
09 22.06 Ю 3-3
{6}
20 км 8/0
[Ac As Cs]
+26.6 +15.7 51 +30 +37 душно 1014.0 998.5
12 22.06 Ю 3-3
{6}
20 км 8/0
[Ac As Ci fib]
+28.0 +16.0 48 +31 +36 душно 1012.6 997.2
15 22.06 ЮЗ 2-5
{10}
20 км 6/3
[Cb calv Ac As Ci fib]
+29.3 +13.1 37 +31 +32 жарко 1010.6 995.3 +30.3
18 22.06 Ю 1-3
{17}
20 км гроза, ливневой дождь 10/8 600 м
[Cb calv Ci fib]
+20.1 +17.8 87 +24 +24 комфорт 1012.3 996.6
21 22.06 ЮЗ 1-3
{3}
20 км {гроза} 4/3 600 м
[Cb calv Ci fib]
+18.5 +17.4 93 +20 +20 1012.0 996.2
00 23.06 З 2-3
{4}
20 км {гроза} 10/8 600 м
[Sc Ac As Ci fib]
+18.8 +17.7 93 +21 +21 комфорт 1012.9 997.2
03 23.06 З 2-4
{5}
20 км 10/10 300 м
[Frnb Ns]
+19.8 +18.2 90 +23 +23 комфорт 1013.9 998.1 +18.2 0.7
06 23.06 З 3-7
{7}
20 км 6/3 600 м
[Cu hum Ac trans Ci fib]
+23.2 +15.4 62 +27 +32 душно 1015.3 999.7
09 23.06 СЗ 3-7
{8}
20 км 8/5 600 м
[Cu hum Ac trans]
+25.7 +10.3 38 +27 +31 жарко 1015.8 1000.3
12 23.06 З 3-6
{10}
20 км 5/4 600 м
[Cu hum Ac trans]
+26.8 +9.2 33 +27 +32 жарко 1015.5 1000.0
15 23.06 СЗ 3-7
{10}
20 км 3/0
[Ac trans Ci fib]
+25.2 +6.4 30 +25 +27 комфорт 1015.7 1000.1 +27.0
18 23.06 З 1-2
{7}
20 км 3/0
[Ac trans Ci fib]
+19.0 +6.4 44 +21 +21 комфорт 1016.6 1000.7
21 23.06 СЗ 1-3
{3}
20 км 10/8 600 м
[Cb calv Ac As]
+16.1 +8.0 59 +17 +17 1017.6 1001.6
00 24.06 З 1-2
{2}
20 км 5/1 600 м
[Sc Ac trans Ci fib]
+13.7 +7.4 66 +14 +14 1018.8 1002.5
03 24.06 СЗ 1-3
{3}
20 км 8/0
[Ci fib]
+15.7 +8.4 62 +16 +19 1019.3 1003.1 +12.9
06 24.06 З 2-4
{5}
20 км 9/0
[Ac As Ci fib]
+21.1 +6.2 38 +22 +28 комфорт 1018.9 1003.0

 

Местоположение метеостанции Ветлуга (Нижегородская область, Россия): широта 57.85 долгота 45.77 высота над уровнем моря 136 м.

В архиве по умолчанию представлена погода в Ветлуге за последнюю неделю. Архивные данные за месяц целиком и за предыдущие месяцы, начиная с января 2011 года, Вы можете получить, выбрав интересующий диапазон дат из раскрывающегося списка и нажав кнопку "Ввод!".


*Определитесь, кто Вы:
робот инопланетянин человек

Внимание! Время в таблицах - всемирное. Для получения местного времени необходимо прибавить поправку, которая равна 3 ч.

Смотрите также архив погоды в соседних городах и на ближайших метеорологических станциях:

Погода в Шахунье (Нижегородская область, Россия) (55 км)
Погода в Шарье (Костромская область, Россия) (60 км)
Погода в Мантурово (Костромская область, Россия) (79 км)
Погода в Красных Баках (Нижегородская область, Россия) (88 км)
Погода в Шабалино (Кировская область, Россия) (94 км)
Погода в Пыщуге (Костромская область, Россия) (115 км)
Погода в Воскресенском (Нижегородская область, Россия) (117 км)
Погода в Макарьеве (Костромская область, Россия) (118 км)
Погода в Вохме (Костромская область, Россия) (134 км)
Погода в Санчурске (Кировская область, Россия) (134 км)

Пояснения к столбцам:

Ветер - указаны скорость ветра в м/с - средняя за 10 мин, порывы в срок и между сроками (в фигурных скобках) и направление, откуда дует ветер: С - северный, СВ - северо-восточный, В - восточный, ЮВ - юго-восточный, Ю - южный, ЮЗ - юго-западный, З - западный, СЗ - северо-западный.
Видимость - горизонтальная дальность видимости в метрах или километрах. При видимости от 1 до 10 км при отсутствии осадков обычно наблюдается дымка, при ухудшении видимости до 1 км и менее - туман. В сухую погоду видимость может ухудшаться дымом, пылью или мглою.
Явления - указаны атмосферные явления, наблюдавшиеся в срок или в последний час перед сроком; фигурными скобками обозначены явления, наблюдавшиеся между сроками (за 1-3 часа до срока); квадратными скобками обозначены град или гололедные отложения с указанием их диаметра в мм.
Облачность - указаны через наклонную черту общая и нижняя облачность в баллах и высота нижней границы облаков в метрах; квадратными скобками обозначены формы облаков: Ci - перистые, Cs - перисто-слоистые, Cc - перисто-кучевые, Ac - высококучевые, As - высокослоистые, Sc - слоисто-кучевые, Ns - слоисто-дождевые, Cu - кучевые, Cb - кучево-дождевые. Подробнее классификацию облаков см. в Атласе облаков (PDF).
T - Температура воздуха - температура, измеренная на высоте 2 м над землей.
Td - Температура точки росы - температура, при понижении до которой содержащийся в воздухе водяной пар достигнет насыщения.
f - Относительная влажность воздуха - влажноcть воздуха, измеренная на высоте 2 м над землей.
Te - Эффективная температура - температура, которую ощущает одетый по сезону человек в тени. Характеристика душности погоды. При расчете учитывается влияние влажности воздуха и скорости ветра на теплоощущения человека.
Tes - Эффективная температура на солнце - температура, которую ощущает человек, с поправкой на солнечный нагрев. Характеристика знойности погоды. Зависит от высоты солнца над горизонтом, облачности и скорости ветра. Ночью, в пасмурную погоду, а также при ветре 12 м/с и более поправка равна нулю.
P - Атмосферное давление - приведенное к уровню моря атмосферное давление.
Po - Атмосферное давление - измеренное на уровне метеостанции атмосферное давление.
Tmin - Минимальная температура - минимум температуры воздуха на высоте 2 м над землей.
Tmax - Максимальная температура - максимум температуры воздуха на высоте 2 м над землей.
R - Количество осадков - Количество выпавших осадков за период времени, мм. При наведении курсора мыши на число - период времени, за который выпало указанное количество осадков.
R24 - Количество осадков - Количество выпавших осадков за 24 часа, мм.
S - Снежный покров - Высота снежного покрова, см. При наведении курсора мыши на число - состояние снежного покрова и степень покрытия местности в баллах.